DELTA 1 DEB, 10658

Orbit data source: Space-Track

DELTA 1 DEB, 10658 is space debris in SSO originally from a launch on Thu, 29 Jul 1976 UTC launched from the Air Force Western Test Range (AFWTR). Debris objects in space refer to the collection of defunct objects orbiting the Earth. Examples of debris include non-operational satellites, rocket bodies, and fragments generated from explosions, collisions, or faulty payload assembly.

Loading next visibility...
Identifier
10658, 1976-077U
Orbit
SSO
Country
Flag of USUS
Related business
Manufacturer
Unknown
Mission
Spacecraft
Bus & Motor
Unknown
Mass
Unknown
Launch date (UTC)
1976-07-29 (50 years ago)
Launch vehicle
Unknown
Launch site
Air Force Western Test Range (AFWTR)
Object type
Payload
Rocket body
Debris
Shape & HBR
Unknown shape, 0.7 m
Radar Cross Section
Medium (>0.1 m² and <1 m²)

Expand to show TLE details & history
Last TLE update: 20 hours ago

TLE from 20 hours ago
0 DELTA 1 DEB
1 10658U 76077U   26255.21077730 -.00000042  00000-0  34317-4 0  9993
2 10658 102.4982 243.0449 0056475 215.1960 213.2788 12.29960401250625
Epoch: 2026-09-12T05:03Z
TLE epoch observation values (Epoch: 2026-09-12T05:03:31.158Z)
Latitude
65.04062°
Longitude
147.65202°
Altitude
1,597.981 km
Speed
7.06 km/s
True Right ascension
14h 19m 01s
True Declination
64° 55' 22"
Sunlit
Object was in daylight at epoch
Visualization orbit readout
Latitude
Unknown
Longitude
Unknown
Altitude
Unknown
Speed
Unknown
Apparent Right ascension
Unknown
Apparent Declination
Unknown
Sunlit
N/A
Visualization observer readout
Local Sidereal Time
17:32:57
Azimuth
Unknown
Elevation
Unknown
Doppler factor
Unknown
Orbital elements
Apogee altitude
1,591.827 km
Perigee altitude
1,502.312 km
Semi-major axis
7,925.206 km
Eccentricity
0.00565
Inclination
102.4982°
RAAN
243.0449°
Arg. of periapsis
215.196°
True anomaly
212.92578°
Mean anomaly
213.2788°
Eccentric anomaly
213.10208°
Mean motion
3.07629 °/min
Orbital period
117.02 mins
BSTAR
0.000034317
Loading maneuver chart data...
Computing Atmospheric mass density...
Loading historical data...
Loading historical data...
Loading historical data...
Loading historical data...
Loading historical data...
Loading historical data...
Loading historical data...

Documentation

Showing up to 5 results
|